                ,  0.300,  0.400,  0.500,  0.600,  0.700,  0.800,  0.900,  1.000,  1.100,  1.200,  1.300,  1.400,  1.500,  1.600,  1.700,  1.800,  1.900,  2.000,  2.100,  2.200,  2.300,  2.400,  2.500,  2.600,  2.700,  2.800,  2.900,  3.000,  3.100,  3.200,  3.300,  3.400,  3.500,  3.600,  3.700,  3.800,  3.900,  4.000,  4.100,  4.200,  4.300,  4.400,  4.500,  4.600,  4.700,  4.800,  4.900,  5.000,  5.100,  5.200,  5.300,  5.400,  5.500,  5.600,  5.700,  5.800,  5.900,  6.000
2000/10/02 00:00,   -5.5,   -5.4,   -5.5,   -5.5,   -5.5,  999.0,  999.0,   -5.6,  999.0,  999.0,   -5.5,   -5.5,   -5.4,   -5.6,   -5.5,   -5.5,   -5.4,   -5.5,   -5.4,  999.0,   -5.5,   -5.6,  999.0,   -5.7,   -5.4,   -5.5,   -5.6,   -5.5,   -5.6,  999.0,   -5.6,  999.0,    5.5,  999.0,    5.5,    5.6,    5.6,  999.0,    5.5,    5.6,    5.6,    5.3,    5.6,    5.5,    5.5,  999.0,  999.0,  999.0,  999.0,    5.5,    5.6,  999.0,    5.5,  999.0,    5.6,  999.0,    5.6,    5.6
2000/10/02 00:10,   -5.5,   -5.5,   -5.5,   -5.6,   -5.6,   -5.5,   -5.5,   -5.5,   -5.6,   -5.5,   -5.5,   -5.5,   -5.5,   -5.5,   -5.5,   -5.5,   -5.5,   -5.5,   -5.4,  999.0,   -5.4,   -5.5,  999.0,   -5.5,   -5.5,   -5.4,   -5.4,   -5.5,  999.0,  999.0,  999.0,   -5.6,   -5.5,  999.0,  999.0,    5.4,   -5.6,  999.0,   -5.5,    5.5,    5.5,   -5.5,  999.0,    5.3,  999.0,  999.0,    5.5,   -0.1,  999.0,  999.0,    5.4,    5.5,    5.5,  999.0,  999.0,  999.0,    5.4,  999.0
2000/10/02 00:20,   -5.5,   -5.5,   -5.5,   -5.5,   -5.5,   -5.4,   -5.5,   -5.5,   -5.6,  999.0,   -5.5,   -5.5,   -5.4,   -5.5,   -5.6,   -5.5,   -5.5,   -5.6,   -5.6,   -5.7,   -5.5,   -5.6,   -5.4,   -5.5,   -5.5,   -5.4,   -5.5,  999.0,  999.0,  999.0,  999.0,   -5.4,   -5.5,  999.0,   -5.5,   -5.5,  999.0,  999.0,  999.0,   -5.5,  999.0,  999.0,   -5.5,  999.0,  999.0,   -5.3,  999.0,  999.0,  999.0,   -5.6,  999.0,   -5.5,  999.0,   -5.5,   -5.6,   -5.7,   -5.5,  999.0
2000/10/02 00:30,   -3.7,   -5.4,    1.9,  999.0,   -5.5,   -1.9,   -0.1,   -5.5,    1.8,   -2.8,   -0.0,    0.1,   -2.8,    0.1,   -3.6,   -5.7,    0.1,    1.9,   -3.6,   -2.7,   -2.9,   -2.8,   -5.5,   -2.8,   -5.5,   -3.7,   -2.8,    0.0,   -5.6,   -1.8,   -5.4,   -5.5,   -3.7,   -0.0,   -3.7,   -5.5,   -5.5,  999.0,   -2.8,   -5.5,   -5.5,   -5.5,   -5.6,   -5.4,   -2.7,   -0.1,   -2.8,  999.0,    0.1,  999.0,   -5.5,   -5.5,    5.6,   -5.6,   -5.4,    0.0,    0.0,   -5.5
2000/10/02 00:40,    1.8,    1.8,    3.7,    2.7,    0.1,    3.7,    0.0,    3.7,    2.9,    5.6,   -5.5,    2.8,    5.5,    0.1,    5.5,   -0.0,    5.4,    5.5,    5.5,    5.5,    0.0,    0.0,    5.5,  999.0,  999.0,  999.0,  999.0,  999.0,   -5.5,   -5.5,    5.5,   -5.4,    0.0,   -5.5,   -0.0,  999.0,   -5.6,   -5.5,    5.7,    5.5,   -5.5,  999.0,   -2.7,    0.0,   -5.5,   -5.6,   -2.7,   -5.5,   -5.6,   -5.6,   -2.7,   -5.5,   -2.8,   -5.5,    0.0,   -5.6,   -5.5,   -5.6
2000/10/02 00:50,   -1.8,    0.0,   -5.5,   -1.8,    0.0,   -1.8,   -2.8,   -1.8,   -2.8,   -3.6,    1.9,   -5.5,   -1.8,   -3.8,   -5.6,   -1.8,   -1.9,   -5.5,   -5.4,    0.0,    0.0,    5.6,    0.1,    1.9,  999.0,    0.1,    5.5,    1.9,   -0.0,    1.9,   -5.6,    5.6,    5.6,    1.1,    5.5,   -0.0,    1.8,    5.6,  999.0,    1.9,    1.8,    5.5,    1.9,    5.6,    5.5,    5.5,    0.1,    2.8,  999.0,    5.4,    5.5,    5.5,    5.6,   -0.1,    3.6,   -0.1,    5.6,    5.5
2000/10/02 01:00,   -3.7,   -1.8,   -5.6,   -1.8,  999.0,   -5.5,   -5.6,   -5.6,    0.1,   -5.6,   -3.7,   -1.9,   -1.9,   -5.6,  999.0,    5.5,   -0.1,   -5.5,   -0.0,    5.6,    5.5,    5.5,    5.5,    5.7,    5.6,    5.5,    5.4,  999.0,   -5.4,    5.6,  999.0,    5.4,  999.0,   -0.1,  999.0,  999.0,    5.5,    2.8,    5.5,    5.5,   -0.1,    5.5,  999.0,    5.5,    5.5,    5.4,  999.0,  999.0,  999.0,    5.4,  999.0,  999.0,  999.0,    5.5,  999.0,    5.5,    5.4,    5.5
2000/10/02 01:10,   -5.5,   -5.5,   -5.6,   -5.6,   -5.6,   -5.5,  999.0,   -5.5,   -5.4,   -5.5,  999.0,  999.0,   -2.0,  999.0,  999.0,  999.0,  999.0,  999.0,  999.0,  999.0,  999.0,    5.5,    5.5,  999.0,    5.5,    5.5,    5.5,    5.5,    5.6,  999.0,    5.6,    5.4,    5.6,    5.5,  999.0,    5.6,  999.0,    5.6,    5.6,    5.4,    5.5,    5.6,    5.5,    5.4,    5.6,    5.5,    5.6,    5.6,    5.5,  999.0,    5.5,    5.6,    5.5,    5.6,    5.6,    5.5,    5.5,    5.4
2000/10/02 01:20,   -1.8,   -1.7,   -1.8,    0.1,   -5.5,  999.0,   -1.8,   -5.5,   -5.5,   -5.6,    0.0,   -5.4,   -5.5,   -5.5,  999.0,    0.1,  999.0,   -5.4,  999.0,   -5.6,   -0.0,  999.0,    0.1,    5.4,    5.5,    5.6,   -0.1,    0.0,    0.0,  999.0,    5.5,    1.5,    5.5,   -5.5,   -5.5,    5.5,   -0.0,    5.5,    5.5,    5.5,    3.6,    5.5,    5.7,   -5.4,    2.7,    5.4,    5.6,    2.7,   -5.6,   -5.5,  999.0,   -5.5,   -5.5,   -5.6,   -0.0,    0.1,  999.0,   -0.0
2000/10/02 01:30,   -3.7,   -5.5,   -3.6,   -5.6,   -0.0,   -5.4,   -0.1,   -0.0,  999.0,   -5.5,   -5.6,   -3.4,   -5.7,  999.0,    5.5,    5.5,  999.0,  999.0,  999.0,  999.0,  999.0,    5.5,    5.5,    5.5,    5.4,    5.5,    5.5,  999.0,    5.5,    1.8,    3.7,    1.8,    5.5,    2.8,    1.9,    5.5,    5.5,    5.5,   -0.1,    0.1,   -0.1,    3.6,   -0.0,   -0.1,    5.5,    5.5,    5.6,  999.0,   -0.1,   -0.2,    0.0,   -5.5,   -0.0,   -5.5,   -5.5,   -5.6,   -5.6,   -5.6
2000/10/02 01:40,    0.0,   -5.4,   -1.5,   -0.0,    5.5,   -5.5,    5.6,    5.5,    5.6,    5.5,    5.5,  999.0,    5.4,    5.5,    5.4,    5.4,  999.0,    5.7,    5.4,  999.0,    5.5,    5.6,    5.4,  999.0,  999.0,  999.0,  999.0,  999.0,  999.0,    5.3,   -0.1,    5.7,   -5.5,   -0.0,   -0.0,  999.0,   -5.5,  999.0,   -2.7,   -5.7,   -5.5,   -5.6,   -5.5,   -5.5,   -5.5,   -5.5,   -5.5,   -5.5,   -5.5,  999.0,    0.0,   -0.1,   -5.4,  999.0,   -5.5,  999.0,   -5.6,   -5.4
2000/10/02 01:50,   -5.6,   -5.6,   -5.6,   -5.4,  999.0,    0.0,  999.0,    1.8,  999.0,    5.6,   -5.4,    5.5,   -0.1,    2.7,    5.6,    5.5,    5.6,    3.6,    2.7,    3.7,    5.6,    5.5,    5.6,    5.3,    5.5,  999.0,    5.5,  999.0,  999.0,  999.0,  999.0,  999.0,  999.0,  999.0,  999.0,  999.0,  999.0,  999.0,  999.0,  999.0,  999.0,  999.0,   -5.5,   -5.4,   -5.4,  999.0,   -5.5,   -5.5,   -5.5,   -5.6,   -5.5,   -5.5,   -5.5,   -5.5,  999.0,   -5.5,   -5.5,   -5.6
2000/10/02 02:00,   -5.5,   -5.6,   -5.4,   -5.5,   -5.5,   -5.5,   -5.5,   -5.5,   -5.5,   -5.7,   -5.5,   -5.5,   -5.5,   -5.5,   -5.6,   -5.6,   -5.6,   -5.6,  999.0,   -5.5,  999.0,  999.0,  999.0,   -5.6,  999.0,   -5.5,   -5.4,   -5.5,  999.0,   -5.5,   -5.4,   -5.7,  999.0,   -5.6,   -5.5,   -5.5,  999.0,   -5.5,  999.0,   -5.4,   -5.4,  999.0,   -5.4,   -5.4,   -5.6,   -5.5,   -5.4,   -5.5,   -5.4,   -5.4,   -5.5,   -5.5,   -5.5,   -5.5,   -5.5,   -5.6,  999.0,  999.0
2000/10/02 02:10,   -3.7,   -3.7,    0.0,   -5.5,   -5.5,   -5.6,   -5.4,   -5.6,   -5.4,   -5.5,   -5.7,   -5.5,   -5.5,   -5.5,  999.0,   -5.5,   -5.4,   -5.6,   -5.6,   -5.5,    0.1,   -1.8,  999.0,  999.0,   -5.5,    5.6,   -5.5,   -5.5,   -5.4,   -5.6,   -5.5,   -5.4,   -5.5,   -5.4,   -5.6,   -5.4,   -5.5,   -5.5,   -5.5,   -5.5,   -5.3,   -5.5,   -5.6,   -5.5,   -5.5,   -5.6,   -5.5,   -5.5,   -5.6,   -5.5,   -5.5,   -5.5,   -5.6,   -5.4,   -5.4,   -5.5,   -5.5,   -5.5
2000/10/02 02:20,   -5.5,   -5.5,   -5.5,   -5.5,   -5.6,   -5.5,   -5.5,   -5.4,   -5.5,   -5.4,   -5.6,   -5.5,   -5.5,   -5.5,   -5.5,   -5.4,   -5.4,   -5.5,   -5.5,   -5.5,   -5.5,   -5.5,   -5.5,   -5.5,   -5.5,   -5.5,   -5.6,   -5.5,   -5.5,  999.0,   -5.5,   -5.4,   -5.5,   -5.5,   -5.5,   -5.6,   -5.4,   -5.5,   -5.5,   -5.4,   -5.5,   -5.5,   -5.4,   -5.5,   -5.5,   -5.6,   -5.5,   -5.4,   -5.5,   -5.5,   -5.6,   -5.6,   -5.5,   -5.5,   -5.5,   -5.5,   -5.4,   -5.5
2000/10/02 02:30,   -3.7,   -5.4,   -5.5,   -1.9,   -3.7,   -5.5,   -0.0,   -3.6,  999.0,   -1.9,    5.5,   -5.5,   -5.4,   -5.6,   -5.5,   -5.4,   -5.5,   -5.5,   -5.5,   -5.5,   -5.5,   -5.5,   -5.5,   -5.4,   -5.4,   -5.4,   -5.4,   -5.4,   -5.4,   -5.4,   -5.4,   -5.5,   -5.5,   -5.5,   -5.5,   -5.4,   -5.4,   -5.5,   -5.5,   -5.5,   -5.5,   -5.5,   -5.6,   -5.4,   -3.6,   -2.7,   -5.5,   -0.0,   -5.5,   -5.3,   -5.4,   -5.5,  999.0,   -5.5,   -5.5,   -5.5,   -5.5,   -5.5
2000/10/02 02:40,   -3.7,   -5.5,    0.1,   -5.5,   -1.7,  999.0,   -2.7,  999.0,    0.0,   -5.6,   -5.5,   -0.1,   -5.6,  999.0,  999.0,  999.0,   -5.6,   -2.8,   -5.7,  999.0,   -5.3,  999.0,   -5.6,   -5.5,   -5.4,   -5.5,   -5.4,   -5.5,   -5.5,   -5.6,   -5.6,   -5.6,   -5.5,   -5.6,   -5.6,   -5.5,   -5.5,   -0.0,   -5.6,   -5.5,   -5.4,   -5.6,   -5.4,   -5.5,   -5.4,   -0.0,    0.0,  999.0,    0.2,   -3.6,   -2.7,    0.0,   -5.5,  999.0,   -3.7,   -5.6,   -5.5,   -5.6
2000/10/02 02:50,   -3.7,   -2.8,   -5.5,   -3.7,   -0.1,   -5.5,   -2.8,   -1.8,   -1.9,   -5.5,   -3.7,   -5.5,   -0.1,   -5.6,   -5.6,   -5.5,  999.0,   -5.5,   -5.5,   -2.8,   -5.6,    5.5,   -5.4,   -5.5,   -5.5,   -5.4,   -5.5,   -5.5,   -5.5,   -5.5,   -3.7,   -2.7,   -2.8,   -5.6,   -5.6,   -5.5,    0.0,   -5.5,   -0.0,   -3.6,   -5.6,  999.0,    5.5,    5.5,    5.5,   -5.5,    2.8,   -5.7,    2.7,    0.1,    5.6,    5.7,  999.0,    2.8,    5.5,    0.1,    5.5,    5.3
2000/10/02 03:00,   -3.7,   -5.5,   -1.8,   -3.6,   -2.8,   -5.5,   -1.9,   -5.5,   -2.8,    0.0,   -5.5,   -5.4,   -1.8,   -2.9,   -5.5,   -5.5,   -5.5,   -5.5,   -5.5,   -5.4,   -1.8,    0.1,   -5.5,   -5.5,   -5.4,   -5.5,   -5.5,   -5.5,   -5.5,   -5.5,   -5.4,   -2.8,   -5.5,   -2.7,   -1.8,   -5.4,   -5.5,  999.0,  999.0,  999.0,  999.0,  999.0,  999.0,  999.0,  999.0,  999.0,  999.0,  999.0,  999.0,    5.6,    5.5,    5.4,    5.5,    5.5,    5.4,    5.5,    5.6,    5.5
2000/10/02 03:10,   -3.7,   -2.7,   -5.5,   -1.8,   -5.5,   -5.4,   -2.9,    0.0,   -5.4,   -2.0,   -0.1,   -5.5,   -5.5,   -1.9,   -5.5,   -5.6,   -5.6,   -1.8,   -1.8,   -5.4,   -5.4,   -5.5,   -5.5,   -5.5,  999.0,   -5.5,   -5.5,  999.0,   -5.5,  999.0,  999.0,   -5.6,   -5.4,  999.0,   -5.5,   -5.5,   -5.4,   -5.5,   -5.6,   -5.5,   -5.5,   -5.5,  999.0,   -5.4,   -5.6,   -5.4,   -5.4,   -5.5,   -5.5,  999.0,   -5.5,  999.0,   -5.4,   -5.5,   -5.4,   -5.5,   -5.4,   -5.5
2000/10/02 03:20,   -5.5,   -5.5,   -5.5,   -5.5,   -5.5,   -5.4,   -5.4,  999.0,   -5.4,   -5.5,    0.1,    0.1,   -2.7,   -5.5,   -5.6,   -5.5,  999.0,   -5.5,   -5.4,   -5.4,  999.0,   -5.5,   -5.6,   -5.5,   -5.5,   -5.5,   -5.6,   -5.7,   -5.5,   -5.5,   -5.4,   -5.5,   -5.6,   -5.5,    5.5,   -5.6,   -5.5,   -5.5,   -2.7,   -5.5,   -5.6,   -5.5,   -5.4,   -5.6,  999.0,   -5.5,   -5.5,   -1.8,   -5.5,   -5.6,   -5.5,   -5.5,   -5.4,   -5.5,  999.0,   -5.5,   -5.5,   -5.5
2000/10/02 03:30,   -5.5,   -5.5,   -5.6,   -5.5,   -5.5,   -5.3,    0.0,   -5.4,    0.1,   -0.0,   -5.6,    0.0,    5.4,  999.0,   -5.5,   -5.6,    5.5,  999.0,    1.8,    5.4,   -5.7,    5.5,   -5.2,  999.0,   -5.5,  999.0,  999.0,  999.0,  999.0,  999.0,    0.0,    5.5,   -1.8,    0.0,   -5.5,   -5.6,    5.5,   -5.6,   -5.4,  999.0,  999.0,   -0.1,    5.5,   -5.4,  999.0,    5.5,  999.0,   -5.6,   -5.3,   -5.6,    0.0,   -5.5,  999.0,   -5.3,   -5.5,   -1.8,    0.1,   -5.5
2000/10/02 03:40,   -5.5,   -5.4,   -5.7,   -5.5,   -5.5,   -5.5,   -5.4,   -3.7,   -5.6,   -5.6,   -1.9,   -1.9,    0.1,   -0.0,   -5.5,   -5.5,   -5.5,   -2.7,   -2.8,   -5.4,   -5.5,  999.0,   -5.5,   -5.4,   -5.4,   -5.4,   -5.5,   -5.4,   -5.5,  999.0,  999.0,   -5.6,   -5.5,   -5.6,   -5.5,   -1.9,   -2.7,   -5.5,   -5.5,   -1.8,   -3.7,   -2.7,  999.0,  999.0,   -5.6,   -3.6,   -2.7,   -5.5,   -5.5,   -5.5,  999.0,   -5.6,   -5.5,   -5.5,   -5.5,   -5.5,   -5.5,   -5.6
2000/10/02 03:50,   -0.0,    0.0,    0.0,   -5.5,   -0.0,   -5.4,    5.4,   -5.5,    0.0,   -5.3,   -0.0,   -2.7,   -5.3,   -5.4,   -5.5,   -0.1,   -5.7,   -5.5,   -5.6,   -0.0,   -5.6,   -5.5,   -5.5,   -5.4,   -5.4,   -5.5,   -5.4,  999.0,   -5.4,   -5.5,   -5.5,   -5.4,   -5.6,   -5.5,   -3.6,   -5.5,   -5.6,   -5.6,   -5.3,   -5.5,   -5.5,   -5.5,   -5.5,   -5.4,   -5.4,   -5.4,   -5.5,  999.0,   -5.4,  999.0,   -5.4,   -5.4,   -5.4,   -5.4,   -5.6,   -5.6,  999.0,   -5.4
2000/10/02 04:00,    1.8,    0.0,    5.4,    5.4,    5.4,    5.4,   -5.5,    5.4,    0.0,    5.5,    5.4,    5.4,    1.8,  999.0,    5.5,   -0.0,    0.0,    5.4,    5.4,    5.5,    5.3,    5.5,  999.0,   -5.5,   -5.3,  999.0,  999.0,    5.5,  999.0,  999.0,  999.0,    5.5,    5.4,    5.4,    5.4,    5.5,    5.4,    5.6,    5.6,    5.4,  999.0,    5.4,    5.5,    5.4,    5.4,    5.5,    5.4,    5.5,    5.5,   -5.4,    0.1,    1.9,    1.8,    5.4,    5.4,  999.0,   -0.1,  999.0
2000/10/02 04:10,    5.5,    5.5,    5.5,    5.5,    5.5,    5.5,    5.6,    5.5,    5.5,    5.5,    5.5,    5.6,    5.3,    5.5,    5.5,    5.6,  999.0,    5.4,    5.6,    5.5,    5.5,    5.6,  999.0,   -5.6,    5.5,    5.5,  999.0,  999.0,   -5.5,   -5.5,    5.5,    5.5,    5.4,    5.6,    5.4,    5.4,    5.6,  999.0,  999.0,    5.5,    5.5,    5.5,    5.6,    5.4,    5.6,    5.6,  999.0,    5.5,    5.6,    5.6,  999.0,    5.5,    5.5,    5.5,  999.0,    5.6,  999.0,  999.0
2000/10/02 04:20,   -0.0,  999.0,    0.1,   -0.1,    5.7,    1.9,   -1.9,    0.0,    5.5,    5.6,    5.6,    5.6,  999.0,   -5.6,    5.6,    5.6,    5.5,    5.5,    5.5,   -0.1,    5.6,   -5.6,  999.0,  999.0,  999.0,    5.3,  999.0,    5.6,  999.0,  999.0,   -5.6,  999.0,    0.1,    0.0,    5.6,    5.5,    5.7,    5.5,    1.8,    5.6,    1.9,    5.6,   -0.0,    0.0,    5.6,    5.7,   -0.1,    5.5,    5.7,    5.6,    1.9,    5.5,    1.9,    1.9,    5.5,    5.6,    5.6,    5.5
2000/10/02 04:30,   -5.5,   -5.5,   -5.5,   -5.6,   -5.6,   -5.6,    5.4,    5.6,    5.6,    5.5,    5.6,    5.5,    5.4,    5.6,    5.5,    5.4,    5.5,    5.6,    5.4,    5.4,    5.4,  999.0,    5.5,    5.5,    5.6,    5.6,    5.3,    5.6,    5.5,  999.0,    5.5,    5.5,    5.4,    5.6,    5.6,    5.5,    5.5,    5.4,  999.0,    5.5,    5.5,    5.5,    5.6,    5.4,    5.5,    5.5,    5.5,    5.6,    5.5,    5.4,    5.4,    5.5,    5.6,    5.5,    5.5,    5.5,    5.4,    5.5
2000/10/02 04:40,   -5.5,   -5.6,   -5.5,   -5.5,   -5.5,   -5.4,   -5.3,   -5.5,   -5.6,   -5.4,   -5.5,   -5.5,   -0.0,   -0.1,  999.0,    0.0,    0.0,    0.1,    5.6,    0.0,   -0.0,   -5.4,    5.5,    5.3,    5.4,  999.0,    5.5,    5.6,    5.5,  999.0,    0.0,    5.6,    5.5,  999.0,    5.5,    5.5,    5.4,  999.0,  999.0,  999.0,    5.5,    5.5,    5.5,    5.5,    5.5,    5.5,    5.4,    5.6,    3.6,    3.6,    2.6,    2.6,    1.9,  999.0,   -5.5,    5.5,    3.7,    5.5
2000/10/02 04:50,   -5.5,   -5.5,  999.0,   -5.5,   -5.5,   -5.4,   -5.5,   -5.4,   -5.5,   -5.5,  999.0,   -5.4,   -5.5,   -5.4,   -5.6,   -5.3,   -5.4,  999.0,   -5.5,   -5.4,   -5.4,   -5.5,  999.0,   -5.5,  999.0,  999.0,  999.0,  999.0,  999.0,  999.0,  999.0,  999.0,  999.0,  999.0,  999.0,  999.0,  999.0,  999.0,  999.0,  999.0,  999.0,    5.4,    5.4,    5.6,    5.5,    5.5,    5.4,    5.4,    5.5,    5.4,    5.5,    5.5,    5.5,    5.5,    5.4,    5.5,    5.5,    5.5
2000/10/02 05:00,   -5.5,   -5.4,   -5.4,   -5.5,   -5.4,   -5.5,   -5.5,   -5.5,   -5.5,   -5.6,   -5.5,   -5.4,   -5.5,   -5.5,   -5.6,   -5.5,   -5.4,   -5.4,   -5.5,   -5.5,   -5.5,  999.0,  999.0,   -5.5,   -5.5,  999.0,  999.0,  999.0,  999.0,  999.0,  999.0,  999.0,  999.0,   -5.7,  999.0,  999.0,   -5.4,  999.0,  999.0,   -5.5,  999.0,  999.0,  999.0,   -5.6,   -5.6,  999.0,    0.1,    5.6,    2.7,    2.8,    1.9,    5.5,    2.7,  999.0,    5.5,    1.8,    2.7,    0.0
2000/10/02 05:10,   -5.5,   -5.5,   -5.4,   -5.4,   -5.5,   -5.4,   -5.5,   -5.5,   -5.4,   -5.5,   -5.5,   -5.5,   -5.6,   -5.4,   -5.5,   -5.5,   -5.5,   -5.5,   -5.3,   -5.5,   -5.5,   -5.5,   -5.5,   -5.5,  999.0,  999.0,  999.0,  999.0,  999.0,   -3.1,  999.0,  999.0,  999.0,  999.0,  999.0,  999.0,  999.0,  999.0,  999.0,  999.0,  999.0,  999.0,  999.0,  999.0,  999.0,  999.0,  999.0,  999.0,  999.0,    5.5,    5.5,    5.4,  999.0,    5.5,    5.5,    5.5,    5.3,  999.0
2000/10/02 05:20,   -5.5,   -5.6,   -5.5,  999.0,   -5.5,   -5.6,   -5.5,   -5.4,   -5.5,   -5.6,   -5.5,   -5.6,   -5.4,   -5.5,   -5.4,   -5.5,   -5.5,  999.0,   -5.6,   -5.6,   -5.5,   -5.5,   -5.5,   -5.5,   -5.5,  999.0,  999.0,  999.0,  999.0,  999.0,  999.0,  999.0,  999.0,  999.0,  999.0,  999.0,  999.0,  999.0,  999.0,  999.0,  999.0,  999.0,  999.0,  999.0,  999.0,  999.0,  999.0,  999.0,    5.6,    5.5,  999.0,    5.5,    5.5,    5.5,    5.5,    5.6,    5.4,    5.5
2000/10/02 05:30,   -5.5,   -5.4,  999.0,   -5.6,   -5.5,   -5.5,   -5.5,   -5.5,   -5.4,   -5.5,   -5.5,   -5.5,   -5.5,   -5.4,  999.0,   -5.5,   -5.5,   -5.5,   -5.6,   -5.5,   -5.5,   -5.5,   -5.5,   -5.6,   -5.4,   -5.6,   -5.6,  999.0,  999.0,  999.0,  999.0,  999.0,   -5.5,  999.0,  999.0,  999.0,  999.0,  999.0,  999.0,  999.0,  999.0,  999.0,  999.0,  999.0,  999.0,  999.0,  999.0,  999.0,  999.0,    5.4,  999.0,  999.0,    5.5,    5.6,    5.5,    5.6,    5.5,    5.4
2000/10/02 05:40,   -5.5,  999.0,   -5.5,   -3.8,   -5.5,   -5.5,   -5.6,   -5.6,   -5.6,   -5.7,  999.0,   -5.6,   -5.5,   -5.6,   -5.5,   -5.6,   -5.6,   -5.6,   -5.5,   -5.7,   -5.6,   -5.5,   -5.6,  999.0,  999.0,  999.0,  999.0,  999.0,  999.0,  999.0,  999.0,  999.0,  999.0,  999.0,  999.0,  999.0,  999.0,  999.0,  999.0,  999.0,  999.0,  999.0,  999.0,  999.0,    5.6,    5.5,  999.0,  999.0,    5.6,    5.5,    5.6,    5.5,    5.6,    5.6,    5.6,    5.6,    5.5,    5.6
2000/10/02 05:50,   -5.5,   -5.5,   -5.5,   -5.5,   -5.6,   -5.5,  999.0,   -5.4,   -5.5,   -5.6,   -5.5,   -5.5,   -5.5,   -5.5,   -5.6,   -5.5,   -5.5,   -5.5,   -5.6,  999.0,   -5.5,   -5.3,   -5.6,  999.0,   -5.5,  999.0,  999.0,  999.0,  999.0,  999.0,  999.0,  999.0,   -5.4,  999.0,   -5.5,   -5.4,   -5.4,  999.0,   -5.5,  999.0,   -5.4,   -5.6,  999.0,  999.0,    5.6,    5.5,    5.5,    5.5,    5.6,    2.8,    5.4,  999.0,    5.5,    5.5,    5.5,    2.8,    0.1,    5.5
2000/10/02 06:00,   -5.5,   -5.5,   -5.5,   -5.5,   -5.5,   -5.6,   -5.5,   -5.5,   -5.5,   -5.5,   -5.4,   -5.5,   -5.6,   -5.6,   -5.6,   -5.5,   -5.5,   -5.5,   -5.4,   -5.6,   -5.5,   -5.5,   -5.4,  999.0,   -5.5,   -5.4,   -5.6,  999.0,  999.0,  999.0,  999.0,  999.0,  999.0,  999.0,  999.0,  999.0,  999.0,  999.0,  999.0,  999.0,  999.0,  999.0,  999.0,    5.3,    5.5,    5.3,    5.6,    5.5,    5.5,    5.5,    5.7,    5.6,    5.5,    5.5,    5.5,    5.6,    5.6,    5.5
2000/10/02 06:10,   -5.5,   -5.5,   -5.4,   -5.5,   -5.6,   -5.4,   -5.5,   -5.6,   -5.6,   -5.5,   -5.5,   -5.6,   -5.6,   -5.5,   -5.5,   -5.5,   -5.5,   -5.5,   -5.4,   -5.5,   -5.6,   -5.5,   -5.4,   -5.6,  999.0,  999.0,   -1.9,  999.0,  999.0,  999.0,  999.0,    1.4,  999.0,  999.0,    1.2,  999.0,  999.0,  999.0,  999.0,  999.0,  999.0,  999.0,  999.0,  999.0,    5.4,    5.6,    5.6,    5.4,    5.6,    5.5,    5.6,    5.4,    5.6,    5.5,    5.5,    5.5,    5.6,    5.5
2000/10/02 06:20,   -5.6,   -5.6,   -5.5,   -5.6,   -5.7,   -5.6,   -5.6,   -5.6,   -5.5,   -5.6,   -5.6,   -5.6,   -5.6,   -5.7,   -5.5,   -5.6,   -5.5,   -1.8,   -5.6,    0.0,   -5.5,   -3.7,   -5.5,   -5.3,   -5.6,  999.0,   -5.6,    5.6,  999.0,  999.0,    5.5,    5.6,    5.5,    2.7,    0.1,    5.4,    2.8,   -5.5,    0.0,    0.1,    1.8,    1.9,    3.7,    5.6,    5.5,    5.7,    5.5,    3.7,    5.6,    5.6,    5.5,    2.8,    0.1,    3.7,   -0.1,    5.5,    5.5,    5.6
2000/10/02 06:30,   -5.5,   -5.6,   -5.6,   -5.5,   -5.5,   -5.6,   -5.6,   -5.5,   -5.5,   -5.5,   -5.5,   -5.5,   -5.5,   -5.5,   -5.5,   -5.6,   -5.5,   -5.5,   -5.5,    0.0,   -5.6,   -5.6,  999.0,  999.0,  999.0,  999.0,   -2.0,    5.7,  999.0,    5.6,    5.6,    5.4,    5.6,  999.0,  999.0,    5.5,    5.5,    5.6,    5.5,    5.5,  999.0,    2.8,    5.5,    3.7,    5.5,    5.6,    5.5,    5.6,    5.4,    5.5,    5.6,    5.5,    5.5,    5.5,    5.6,    5.6,    5.6,    5.6
2000/10/02 06:40,   -5.5,   -5.4,   -5.5,   -5.5,   -5.5,   -5.5,   -5.4,   -5.5,   -5.4,   -5.5,   -5.5,   -5.5,   -5.5,   -5.5,   -5.5,   -5.5,   -5.4,   -5.6,  999.0,    5.5,   -0.1,    5.6,  999.0,  999.0,  999.0,  999.0,  999.0,    5.5,  999.0,  999.0,  999.0,  999.0,    5.4,    5.6,    5.6,    5.6,    5.5,    5.5,    5.5,    5.5,    5.6,    5.5,    5.5,    5.5,    5.5,    5.5,    5.5,    5.5,    5.5,    3.7,    3.7,    5.5,    3.6,    1.9,    5.5,    5.4,    1.8,    1.9
2000/10/02 06:50,   -5.5,   -5.4,   -5.5,   -3.7,   -5.5,   -5.5,   -5.6,   -5.4,   -5.5,   -1.8,   -3.7,   -0.0,   -2.7,   -5.5,   -5.5,   -5.6,   -5.5,   -1.8,   -5.6,   -0.0,    0.1,    0.1,  999.0,  999.0,  999.0,  999.0,  999.0,    5.6,    5.5,  999.0,  999.0,  999.0,  999.0,  999.0,  999.0,    5.5,    5.5,    5.5,    5.4,    5.5,    5.5,    5.5,    5.4,    5.6,    5.5,    5.5,    5.5,    5.5,    5.5,    5.6,    5.5,    5.5,    5.4,    5.4,    5.4,    5.5,    5.6,    5.5
2000/10/02 07:00,   -5.5,   -5.5,  999.0,   -5.6,  999.0,   -5.5,   -5.5,  999.0,   -5.5,   -5.6,   -0.0,  999.0,   -0.0,   -0.0,   -5.6,   -5.5,  999.0,  999.0,    5.5,    5.5,    5.4,    5.4,  999.0,  999.0,  999.0,  999.0,  999.0,  999.0,    5.4,  999.0,    5.5,    5.5,  999.0,  999.0,    5.5,    5.3,    5.4,    5.6,    5.5,    5.5,    5.5,    5.5,    5.5,    5.6,    5.4,    5.4,    5.4,    5.5,  999.0,    5.5,    5.5,    5.5,    5.4,    5.4,  999.0,    5.5,    5.5,    5.5
2000/10/02 07:10,   -1.8,   -2.8,   -5.5,   -5.5,   -5.4,  999.0,   -1.8,    0.0,   -0.0,   -5.5,  999.0,   -5.5,   -3.7,    0.0,   -5.5,   -5.5,   -5.6,    0.0,   -1.7,   -3.8,   -1.8,   -2.7,   -5.5,   -5.5,   -5.5,    5.5,  999.0,    5.7,  999.0,   -0.0,    1.8,    0.0,    5.6,   -1.9,   -1.9,    1.8,    5.4,   -0.0,   -1.8,   -0.0,    5.4,    1.8,   -2.7,    1.8,   -1.9,   -0.0,    0.1,    5.5,    5.5,    0.0,    5.5,    0.0,   -1.8,   -5.7,   -1.8,    5.5,   -1.7,   -0.1
2000/10/02 07:20,    1.9,    0.0,    5.6,    5.5,    5.5,    5.7,    5.6,    5.5,  999.0,  999.0,    5.5,  999.0,    1.9,    5.5,  999.0,  999.0,  999.0,    5.5,    5.6,  999.0,    0.2,   -5.5,  999.0,  999.0,  999.0,  999.0,   -5.6,    5.6,    5.5,    5.5,    3.7,   -0.1,   -5.6,  999.0,    5.4,    2.8,    2.7,    2.8,   -0.0,    0.0,   -0.0,    5.5,    0.0,    2.8,   -5.6,    0.1,   -0.0,   -5.4,    5.5,    5.4,    5.5,    2.7,    5.5,   -0.0,    5.5,   -0.1,    5.3,    5.5
2000/10/02 07:30,   -1.8,   -0.0,    0.2,    5.5,    5.5,    5.4,   -5.6,    1.8,  999.0,   -0.1,   -0.0,    0.0,    5.5,  999.0,   -5.7,    5.4,    5.5,    0.0,   -5.6,   -5.6,   -0.1,    5.6,  999.0,   -5.5,   -5.5,   -5.5,   -5.6,  999.0,  999.0,   -5.5,   -5.6,   -5.5,   -5.4,   -5.4,   -5.5,   -5.6,  999.0,  999.0,   -5.7,   -5.6,   -5.4,   -5.6,   -5.5,  999.0,   -5.5,   -5.5,  999.0,   -5.5,   -5.5,   -5.4,   -5.4,   -5.5,   -5.6,   -5.5,   -5.5,  999.0,   -5.5,   -5.6
2000/10/02 07:40,   -0.0,   -1.9,   -0.0,    3.7,    0.0,    2.8,    2.7,   -1.8,   -5.5,   -5.6,   -0.1,   -5.5,   -5.6,   -5.5,    5.5,    5.5,    5.5,    5.4,   -0.0,  999.0,   -0.1,    0.0,   -5.5,  999.0,   -5.5,   -5.5,   -5.6,   -5.6,   -5.5,   -5.4,   -5.5,   -0.1,   -1.9,    5.5,   -0.0,   -1.7,    5.5,    0.0,   -5.5,   -0.1,   -5.5,   -2.7,   -5.5,   -2.8,   -2.8,   -5.5,   -3.7,   -0.0,   -5.6,   -5.5,   -5.5,   -5.5,   -5.5,   -2.7,   -2.8,   -5.5,   -3.6,   -5.6
2000/10/02 07:50,   -1.9,   -5.6,   -5.4,   -5.6,   -5.5,   -5.6,   -5.5,   -5.5,   -1.8,   -3.6,   -5.4,   -5.5,   -5.5,   -5.6,   -5.5,  999.0,   -5.4,   -5.6,    3.4,   -5.6,   -5.5,   -5.6,   -5.5,   -5.5,   -5.5,   -5.6,   -5.5,   -5.5,   -5.4,  999.0,   -1.9,    0.1,   -5.5,   -5.6,   -5.5,   -5.5,   -5.6,   -5.5,   -5.5,    0.1,   -5.5,   -5.6,    0.5,   -1.9,    0.1,   -2.7,   -5.5,   -3.7,   -3.6,   -1.8,   -5.5,   -5.6,   -1.8,   -3.7,   -3.7,   -2.7,   -5.5,   -5.5
2000/10/02 08:00,    0.0,   -5.8,    2.7,   -2.7,   -5.5,    5.5,    5.5,    2.8,   -0.0,   -5.5,   -5.5,   -2.8,    0.0,   -5.4,  999.0,    5.4,   -0.0,    0.0,   -5.4,    0.0,    2.7,   -2.7,   -5.3,   -5.5,   -5.5,   -5.5,   -5.4,   -5.5,  999.0,   -5.5,   -2.8,   -0.0,    2.7,    2.8,    5.5,   -2.8,    0.1,    0.0,    2.8,  999.0,   -0.0,    5.5,   -2.7,   -5.6,   -5.3,    5.5,  999.0,   -5.5,   -0.0,   -5.5,    5.4,   -0.1,   -2.8,   -0.0,   -0.1,  999.0,   -5.5,   -5.5
2000/10/02 08:10,    3.7,   -5.5,   -5.5,   -0.0,    1.9,   -5.5,    5.4,   -0.0,    1.8,    2.7,   -0.0,    2.8,   -0.0,    5.6,  999.0,    5.5,   -5.3,    5.4,    3.6,   -5.5,   -5.6,   -0.0,  999.0,  999.0,  999.0,   -5.5,   -5.4,   -5.5,  999.0,   -5.6,  999.0,   -0.1,    5.5,   -0.1,   -0.0,    5.4,   -5.6,  999.0,    5.5,  999.0,   -5.4,  999.0,  999.0,   -5.6,  999.0,    0.0,  999.0,    5.5,    0.0,    0.1,    0.0,  999.0,   -0.1,    5.5,   -5.5,    5.5,    0.0,   -0.0
2000/10/02 08:20,    0.0,    2.7,    5.6,    2.8,   -1.8,    1.9,    0.0,    2.7,    0.0,   -0.0,    1.8,    0.0,    0.1,  999.0,   -5.6,    5.5,    5.5,    0.1,  999.0,    5.5,    0.1,    5.6,  999.0,   -5.6,   -5.5,   -5.5,  999.0,  999.0,   -5.6,  999.0,   -5.6,   -5.5,    0.0,   -5.5,   -5.5,    0.0,    0.0,   -1.8,    0.0,   -5.5,   -1.8,   -5.6,    0.0,   -5.5,    0.0,    0.1,   -5.7,    0.0,   -5.5,  999.0,   -0.0,   -5.6,    0.0,   -0.0,   -5.5,   -5.5,    5.5,   -5.5
2000/10/02 08:30,    3.7,    1.8,    5.5,    5.5,    5.5,    5.5,    5.5,    5.5,    5.5,    5.5,    5.4,    2.7,    3.7,    5.5,    5.5,    5.5,    5.5,    0.1,   -0.0,   -5.5,    0.1,    3.7,    5.5,   -5.6,   -5.6,   -5.5,   -5.4,   -5.5,   -5.5,  999.0,   -2.8,   -0.0,   -1.8,    0.0,   -5.4,    1.9,    0.0,   -5.7,   -2.8,   -1.9,    0.1,    0.0,   -3.7,   -3.7,   -1.8,   -1.9,    1.8,   -3.7,    0.0,   -2.8,   -5.5,    0.0,   -3.6,   -1.8,    0.0,   -2.8,    5.5,   -0.0
2000/10/02 08:40,    3.7,    5.5,    3.6,    5.5,    3.7,    3.7,    3.6,    3.7,    2.8,    1.9,    2.7,    5.6,    3.6,    3.6,    5.5,    5.5,    5.5,    5.6,    0.0,    0.1,    5.6,    0.1,    5.4,   -5.5,   -5.5,  999.0,   -5.5,   -5.5,   -5.4,    5.5,   -5.5,   -5.5,   -5.5,   -5.5,   -5.6,   -5.5,   -5.5,   -5.4,   -5.5,   -5.6,   -5.5,   -5.5,   -5.5,   -5.5,   -5.5,   -5.6,   -5.5,   -5.5,   -5.5,   -5.5,   -5.5,   -5.5,   -5.5,   -5.5,   -5.6,   -5.4,   -5.6,   -5.5
2000/10/02 08:50,    5.5,    5.2,    5.3,    5.4,    5.5,    5.6,    5.5,    5.5,    5.7,    5.6,    5.5,    5.6,    5.5,    5.5,    5.6,  999.0,  999.0,    5.6,    5.4,    5.5,   -0.1,    5.5,    5.5,  999.0,   -5.5,   -5.5,    5.4,  999.0,   -5.5,    5.6,    0.1,  999.0,    0.0,   -1.9,   -2.8,    0.0,    5.6,    0.0,   -1.8,    0.0,    5.5,   -1.9,    5.5,   -0.0,    5.6,    1.8,  999.0,    5.6,   -3.6,    2.7,  999.0,    0.0,    0.0,    2.7,    2.5,   -2.8,    5.5,    5.4
2000/10/02 09:00,   -5.6,  999.0,   -5.5,   -5.7,  999.0,   -5.5,  999.0,  999.0,   -5.4,  999.0,  999.0,  999.0,  999.0,  999.0,  999.0,  999.0,  999.0,  999.0,  999.0,  999.0,  999.0,  999.0,  999.0,  999.0,  999.0,  999.0,   -5.5,  999.0,  999.0,  999.0,  999.0,  999.0,  999.0,  999.0,  999.0,  999.0,  999.0,  999.0,  999.0,  999.0,  999.0,  999.0,  999.0,   -5.5,   -5.5,  999.0,  999.0,   -5.6,  999.0,  999.0,   -5.5,  999.0,  999.0,   -5.5,  999.0,  999.0,  999.0,  999.0
2000/10/02 09:10,    5.5,  999.0,    5.5,    5.5,    5.5,    5.5,    5.5,    5.5,    5.6,    5.5,    5.5,    5.6,    5.5,    5.5,    5.5,    5.5,    5.5,    5.6,    5.5,    5.5,    5.6,    5.6,    5.5,    5.6,    5.5,    5.5,    5.5,    5.6,    5.5,    5.5,    5.5,    5.5,    5.5,    5.6,    5.5,    5.5,    5.5,    5.5,    5.5,    5.5,    5.5,    5.6,    5.5,    5.6,    5.6,    5.6,    5.5,    5.5,    5.5,    5.5,    5.5,    5.6,    5.5,    5.5,    5.6,    5.5,    5.6,    5.5
2000/10/02 09:20,    5.5,    5.5,    5.5,    5.5,    5.5,    5.5,    5.5,    5.5,    5.6,    5.5,    5.6,    5.6,    5.6,    5.6,    5.6,    5.5,    5.5,    5.5,    5.5,    5.5,    5.5,    5.6,    5.6,    5.5,    5.5,    5.6,    5.5,    5.5,    5.5,    5.5,    5.5,    5.5,    5.5,    5.5,    5.6,    5.5,    5.5,    5.5,    5.5,    5.5,    5.5,    5.5,    5.5,    5.5,    5.5,    5.6,    5.6,    5.4,    5.6,    5.5,    5.5,    5.5,    5.4,    5.5,    5.5,    5.5,    5.5,    5.5
2000/10/02 09:30,    0.0,   -5.4,    0.1,    1.9,    0.0,    0.0,    5.6,   -1.8,    1.8,    1.8,   -1.8,   -0.1,    2.8,    1.9,    5.6,    5.4,    0.1,   -0.0,   -5.4,    0.0,   -2.8,   -1.9,    5.6,    5.5,    5.6,    5.5,    5.6,    5.5,    5.6,    5.6,    5.6,    5.6,    5.5,    5.6,    5.6,    5.6,    5.5,    5.5,    5.6,    5.6,   -2.7,    3.7,    5.6,    0.0,    5.5,    1.8,    0.0,    2.8,    1.8,   -1.9,   -2.8,   -2.8,    2.7,    2.8,    5.6,    5.5,    3.7,    1.9
2000/10/02 09:40,   -3.7,   -1.9,   -3.7,   -2.8,    0.0,   -2.8,   -1.8,   -5.6,   -2.8,    0.0,   -3.7,   -1.9,   -5.5,   -2.8,   -5.6,   -5.5,   -5.6,   -5.5,   -5.5,   -5.5,   -5.5,   -5.5,   -5.5,   -5.6,  999.0,  999.0,  999.0,  999.0,  999.0,  999.0,   -5.5,   -5.5,   -5.5,   -5.6,   -5.6,    0.1,   -0.0,    1.8,    2.7,    0.0,   -0.0,   -0.0,   -1.9,   -1.8,    0.0,    0.0,    0.0,   -0.0,    0.0,   -0.0,   -0.0,   -1.9,    0.0,    0.0,   -1.8,   -0.0,    0.0,    0.0
2000/10/02 09:50,    0.0,  999.0,    5.5,   -5.5,    0.0,  999.0,    0.3,    2.8,   -5.4,    0.0,   -1.9,   -2.8,   -0.1,    5.6,   -0.0,   -1.9,   -1.8,    0.0,    0.0,    1.9,    5.6,    0.0,   -0.0,   -5.5,    5.6,    5.5,   -0.1,    0.0,    0.0,  999.0,   -5.6,    5.5,   -5.5,    5.6,    0.0,  999.0,  999.0,  999.0,  999.0,   -5.5,    5.6,    5.5,    1.8,    5.6,    5.5,   -0.0,  999.0,    2.7,   -5.5,    2.8,    1.9,   -0.0,    5.5,    5.5,    5.5,    5.5,    5.6,  999.0
2000/10/02 10:00,   -5.5,  999.0,  999.0,    0.1,   -5.6,   -5.5,   -5.5,   -2.8,   -2.7,   -5.5,   -5.6,   -5.6,    5.4,   -5.5,   -3.7,   -5.5,   -1.8,    0.0,   -5.6,   -3.7,   -5.5,   -2.8,   -1.9,   -5.5,   -5.5,   -5.5,   -5.5,   -5.5,   -5.6,   -1.8,   -5.6,   -3.7,   -5.5,    0.1,   -5.5,   -5.6,   -5.5,   -5.6,   -5.5,   -5.5,   -3.7,   -5.6,   -5.5,   -0.0,   -5.5,   -2.8,   -5.5,   -5.5,   -5.6,   -5.5,   -3.7,   -5.6,   -5.5,   -5.6,   -5.5,   -5.5,   -5.5,   -5.5
2000/10/02 10:10,   -5.5,   -0.1,   -3.6,   -0.0,  999.0,   -5.4,   -1.8,   -5.5,   -5.5,   -1.8,   -1.8,   -1.9,   -5.4,   -5.6,   -0.0,   -5.5,   -5.5,    0.0,    0.1,    1.9,    0.0,    5.5,    0.0,   -0.0,   -0.1,    1.8,    1.8,    0.0,    1.9,    0.0,    5.4,    1.9,    1.9,    1.9,    2.4,    1.8,    5.5,    5.7,    5.6,    5.5,    1.8,    5.4,    3.7,    5.5,   -5.5,    1.9,    5.5,    5.5,    5.5,    1.8,    5.5,    1.8,    5.6,    1.8,    5.6,    1.8,    5.6,    5.6
2000/10/02 10:20,   -5.5,    0.0,   -2.8,   -2.8,    0.0,   -5.4,   -5.5,   -5.5,   -5.5,   -5.5,   -1.8,   -1.8,   -5.5,   -5.4,   -5.5,   -5.5,   -1.8,   -1.8,   -1.8,   -5.5,   -1.8,    0.0,   -1.9,   -3.7,   -1.8,   -3.7,    0.0,   -1.8,   -3.6,   -5.5,   -5.5,   -5.5,   -1.8,   -5.5,   -5.5,   -5.5,   -5.6,   -5.5,   -5.5,   -5.5,   -5.5,   -5.4,   -5.5,   -5.6,   -5.5,   -5.6,   -5.5,   -5.5,   -5.5,   -5.5,   -5.5,   -5.6,   -5.5,   -5.6,   -5.5,   -5.5,   -5.5,   -5.5
2000/10/02 10:30,    1.8,    5.7,    0.1,    3.7,    5.6,    1.8,    1.9,    1.8,   -0.0,    0.0,    5.5,    3.7,   -0.1,   -0.0,    1.8,    1.8,    5.5,    5.6,    5.6,    2.8,    5.5,    3.7,    5.6,    5.4,    1.8,    1.9,    3.7,  999.0,    5.5,   -0.0,    5.4,    0.0,   -0.0,    5.5,    0.1,    5.5,    5.5,   -0.1,    5.5,   -3.6,   -1.8,   -0.0,   -2.8,    0.0,    0.0,   -5.6,   -1.9,   -3.7,   -1.9,   -2.8,   -1.9,   -0.0,   -2.8,   -5.6,   -3.7,   -3.7,   -5.6,   -0.0
2000/10/02 10:40,   -0.0,   -1.8,   -0.0,   -2.8,   -5.6,   -5.5,   -5.5,   -2.7,   -0.1,    1.9,  999.0,    2.8,   -2.8,   -0.0,   -0.0,    0.0,   -2.7,   -2.7,    5.4,    0.0,   -0.0,    0.0,    0.0,    0.0,    1.8,   -0.0,    5.5,   -0.0,    0.0,    5.5,   -5.5,    5.5,    5.6,  999.0,   -5.5,   -5.5,   -0.1,   -5.5,   -0.1,    0.0,   -5.6,   -0.1,   -5.4,   -0.0,   -2.7,   -5.5,   -2.8,   -2.7,   -5.5,   -5.5,    5.5,   -5.5,    0.0,   -2.8,   -3.7,   -2.8,    0.0,   -5.6
2000/10/02 10:50,   -1.8,   -1.9,    0.0,    0.0,   -0.0,    0.1,   -1.8,    0.1,   -5.5,   -1.8,   -5.5,    0.1,   -0.0,   -1.8,   -1.8,    0.0,   -0.1,   -1.8,    0.0,   -5.5,   -5.5,   -1.8,   -0.0,    0.0,   -0.0,   -1.8,    0.0,   -1.8,    0.0,   -1.8,    0.1,   -1.8,   -1.9,    0.0,    0.0,   -0.0,   -1.8,   -1.8,   -1.8,   -1.8,    0.0,    0.0,   -0.0,    5.5,    5.6,   -5.6,   -1.8,    0.0,   -1.8,    0.0,    0.0,   -1.8,   -5.5,   -5.5,    5.5,   -0.0,   -1.8,   -1.8
2000/10/02 11:00,    5.5,    5.5,    5.4,    5.6,    5.5,    5.5,    5.6,    5.5,    5.5,    5.6,    5.6,    5.6,  999.0,    5.4,    5.5,    5.6,    5.5,    5.5,    5.5,    5.6,    3.6,    2.8,    2.8,    1.8,    5.5,    5.5,    3.6,    5.5,    2.8,    3.7,    2.8,    2.8,    2.7,    5.5,    0.1,    2.7,    1.7,    5.5,   -5.4,    1.9,    3.7,    5.5,    5.5,    5.5,    5.4,   -0.1,    0.0,    2.8,    1.8,    0.1,    2.7,    5.6,    1.9,    5.6,    5.5,    5.5,    1.8,    3.8
2000/10/02 11:10,    1.8,    1.9,    5.6,   -0.0,   -0.0,    1.8,   -1.9,   -0.1,    1.8,    5.7,    5.6,    5.5,    5.5,    3.7,    5.6,  999.0,   -5.5,   -0.1,   -0.0,    0.1,  999.0,   -5.5,    5.5,    5.7,    5.4,   -0.0,   -5.5,   -0.0,    0.0,    1.8,    5.6,    1.8,   -0.1,   -0.1,   -0.1,    5.5,    5.5,    5.5,    5.5,    5.6,    3.8,    5.6,    5.5,    5.6,    5.5,    2.8,   -5.5,   -5.5,    0.0,   -0.0,    5.5,    5.5,    5.5,  999.0,    5.5,    5.6,    1.9,    0.0
2000/10/02 11:20,   -1.8,   -1.9,   -1.8,   -5.7,    1.8,   -0.0,   -2.9,   -5.6,   -1.8,   -3.6,   -1.8,   -5.5,   -5.5,    5.5,   -0.0,   -5.5,   -0.0,   -5.5,   -2.7,  999.0,    0.0,   -5.5,   -5.5,   -5.5,   -5.6,   -5.6,   -5.6,   -5.5,   -2.7,   -5.5,   -5.5,   -5.5,   -0.1,   -5.5,   -5.5,   -3.7,   -2.8,   -5.5,    0.0,   -2.7,    5.6,    5.6,  999.0,   -0.0,    5.6,   -5.5,    5.4,    0.0,   -5.4,    5.6,   -5.4,    5.4,   -0.0,  999.0,    5.5,    5.6,    5.6,   -0.0
2000/10/02 11:30,   -1.8,    0.0,   -5.6,    5.5,    0.0,    0.0,   -0.0,    0.0,    1.8,   -0.0,    1.9,    0.0,    0.0,    1.8,   -5.4,    0.0,    1.9,    5.5,    0.0,    0.1,    1.9,    5.5,    0.0,    0.0,   -0.1,    0.0,   -0.0,    1.9,    1.8,    0.0,    1.8,  999.0,    0.0,    1.9,   -5.4,    1.8,   -0.1,    5.5,   -5.5,    5.5,    1.8,  999.0,    5.5,    5.5,   -5.5,    5.6,    5.5,    1.8,   -5.5,   -5.6,    1.9,   -1.9,   -1.9,   -0.0,    0.0,    5.6,    0.0,    1.9
2000/10/02 11:40,    1.8,   -5.5,    3.6,    2.7,    5.5,    2.8,    5.5,   -0.0,    2.8,    2.8,    0.0,    5.6,    5.6,    3.7,    0.0,    0.0,    3.7,    1.8,    5.5,    5.5,    1.9,    5.5,    2.7,    2.7,    0.1,    5.5,    5.5,   -0.1,    0.0,    5.5,    5.4,   -1.8,    5.5,    5.6,    5.5,    2.7,   -0.0,    5.5,    2.7,    5.5,    5.6,    5.6,    5.5,    5.5,  999.0,    5.5,    1.8,    5.5,    1.8,    2.0,    5.5,    5.6,    1.8,    5.6,    5.5,    5.5,    5.5,    5.6
2000/10/02 11:50,   -3.7,   -1.9,   -3.7,   -0.0,    0.0,   -2.7,   -5.5,   -2.7,    0.0,   -0.0,   -0.0,   -0.0,    5.5,   -1.8,    0.1,    0.0,   -1.8,   -0.0,   -1.8,    0.0,    0.0,   -1.9,   -1.8,    5.5,   -1.8,    1.9,   -0.1,   -0.0,   -0.0,    5.6,    0.1,    5.6,   -0.0,   -5.5,   -5.5,   -5.6,  999.0,   -2.8,    5.5,    5.5,   -5.6,  999.0,    5.5,  999.0,   -5.5,  999.0,   -2.7,   -0.1,   -5.5,    0.0,   -2.7,   -5.5,   -5.6,   -5.5,   -5.5,   -5.5,   -2.8,   -5.5
2000/10/02 12:00,   -1.9,   -0.0,    0.1,    5.5,    5.6,   -1.8,   -1.9,   -1.8,    5.6,    5.6,   -5.5,  999.0,    0.0,   -1.9,  999.0,    5.5,    0.0,   -5.6,   -0.0,    0.0,    5.6,  999.0,    0.0,   -5.5,   -5.6,   -5.5,   -5.2,   -5.6,   -5.6,  999.0,   -5.6,   -1.9,   -5.5,   -5.5,   -5.5,  999.0,    5.6,   -5.5,   -5.5,    0.0,   -5.5,  999.0,    5.4,  999.0,   -5.6,    5.6,  999.0,   -5.5,    5.4,  999.0,  999.0,   -1.9,   -5.5,   -5.6,   -5.6,   -5.6,   -5.6,    5.6
2000/10/02 12:10,    5.5,    5.6,    5.6,    5.6,    5.5,    5.5,    5.5,    5.5,    5.6,    5.5,    5.6,    5.5,    5.5,    5.5,    5.5,    5.5,    5.6,    5.5,    5.5,    5.5,    5.5,    5.6,    5.5,    5.5,    5.5,    5.6,    5.5,    5.5,    1.9,    1.7,    3.7,    5.5,    5.5,    5.5,    2.7,    0.0,    0.0,    5.5,    1.8,    3.7,    1.8,   -5.6,    5.5,   -5.5,    5.5,    0.0,    0.0,    1.8,    5.6,    0.0,    0.1,   -5.5,    5.5,    0.0,   -5.6,   -0.0,    0.0,   -0.3
2000/10/02 12:20,    5.5,    5.6,  999.0,    5.5,    5.6,  999.0,    5.5,    5.5,    5.6,    5.6,    5.7,  999.0,    5.5,    5.6,    5.5,    5.5,  999.0,  999.0,    5.5,    5.5,    5.5,    5.6,    5.4,    5.5,    5.5,    5.6,    5.6,  999.0,    5.5,    5.5,    5.4,    5.6,    5.5,    5.6,    5.6,    5.5,    5.5,  999.0,  999.0,    5.5,    5.6,  999.0,  999.0,    5.5,    5.5,    5.6,  999.0,  999.0,  999.0,    5.6,    5.4,    5.5,    5.6,    5.4,  999.0,    5.5,  999.0,  999.0
2000/10/02 12:30,    0.0,  999.0,    5.5,    5.6,  999.0,   -5.5,   -5.5,    5.4,   -5.6,   -0.0,  999.0,   -0.1,  999.0,   -0.1,   -0.1,    5.5,    5.3,    5.5,  999.0,  999.0,  999.0,   -5.6,   -5.5,  999.0,   -5.5,   -0.0,  999.0,  999.0,  999.0,   -5.6,   -0.0,  999.0,   -5.4,    5.5,   -5.6,    5.5,  999.0,   -5.6,   -5.6,  999.0,   -5.6,  999.0,    5.5,  999.0,  999.0,  999.0,   -5.6,    5.4,  999.0,    5.5,   -0.3,    5.6,    5.5,  999.0,  999.0,    5.5,  999.0,   -5.5
2000/10/02 12:40,    5.5,    5.7,  999.0,  999.0,    5.5,    5.5,    5.5,    5.6,  999.0,  999.0,  999.0,  999.0,    5.5,    5.5,    5.6,  999.0,  999.0,  999.0,  999.0,    5.5,    5.6,  999.0,  999.0,  999.0,    5.5,    5.5,    5.4,    5.6,    5.6,  999.0,  999.0,    5.4,    5.5,  999.0,  999.0,  999.0,  999.0,  999.0,  999.0,  999.0,  999.0,  999.0,  999.0,  999.0,  999.0,  999.0,  999.0,  999.0,  999.0,  999.0,  999.0,  999.0,  999.0,  999.0,  999.0,  999.0,  999.0,  999.0
2000/10/02 12:50,    5.5,  999.0,    5.6,    0.0,    1.8,    5.6,   -0.1,   -5.4,    5.5,    5.5,    5.5,    5.6,   -0.1,    5.5,    5.6,    5.5,  999.0,    5.5,  999.0,    5.5,   -5.6,    5.5,   -5.5,    0.1,    5.6,    5.6,   -0.0,    5.7,  999.0,    5.6,    5.5,    5.6,    5.5,  999.0,  999.0,   -5.5,    5.6,    5.6,   -5.5,   -0.0,    5.5,   -5.7,    5.6,    5.5,    5.6,    0.0,  999.0,    0.0,    5.5,    5.5,    5.5,   -5.6,    1.9,    0.0,  999.0,    5.7,   -0.1,    0.0
2000/10/02 13:00,   -5.5,   -5.6,   -5.5,   -5.5,   -5.5,   -5.5,   -5.5,   -5.7,   -5.5,   -5.5,   -5.5,   -5.6,   -5.6,   -5.4,   -5.4,   -5.5,   -5.5,  999.0,   -5.5,   -5.5,   -5.5,  999.0,  999.0,  999.0,  999.0,   -5.5,  999.0,  999.0,  999.0,   -5.6,  999.0,  999.0,   -5.6,   -5.5,   -0.0,    0.0,    5.5,    5.5,   -5.4,    5.6,    5.6,  999.0,  999.0,    5.5,    5.6,  999.0,  999.0,   -0.0,  999.0,    5.4,  999.0,    0.1,  999.0,  999.0,  999.0,    0.1,   -0.1,   -0.0
2000/10/02 13:10,   -5.5,   -5.5,   -5.6,   -3.5,   -1.3,   -5.4,   -5.5,   -5.6,   -5.6,   -5.4,  999.0,   -5.5,   -5.6,   -5.5,   -5.6,  999.0,   -5.6,   -5.4,  999.0,  999.0,   -5.4,   -5.5,  999.0,   -5.6,  999.0,   -5.6,  999.0,  999.0,   -5.6,   -5.5,   -5.6,   -5.5,   -5.4,  999.0,   -5.6,   -5.5,  999.0,  999.0,  999.0,  999.0,   -5.5,  999.0,  999.0,  999.0,  999.0,  999.0,   -5.7,   -5.5,   -5.6,   -5.4,   -5.5,   -5.7,  999.0,   -5.4,  999.0,  999.0,  999.0,  999.0
2000/10/02 13:20,   -5.5,   -5.5,   -5.6,   -4.9,   -5.6,  999.0,   -5.6,   -5.5,   -5.5,   -5.5,   -5.5,   -5.5,   -5.5,   -5.5,   -5.5,   -5.5,   -5.5,   -5.5,   -5.6,   -5.6,   -5.5,   -5.6,  999.0,   -5.4,   -5.5,   -5.5,  999.0,   -5.6,   -5.5,   -5.5,   -5.5,   -5.6,   -5.6,   -5.5,   -5.5,  999.0,   -5.5,   -5.5,   -5.6,   -5.4,   -5.5,  999.0,  999.0,  999.0,   -5.5,  999.0,   -5.5,   -5.4,  999.0,   -5.4,  999.0,   -5.5,   -5.5,   -5.5,  999.0,   -5.4,   -5.5,  999.0
2000/10/02 13:30,   -3.7,   -2.8,   -5.5,    0.0,  999.0,   -5.6,   -1.9,   -5.5,   -5.6,   -5.5,    0.0,   -1.8,   -1.9,   -5.5,   -5.5,   -5.5,   -5.6,   -5.5,   -5.5,   -5.5,   -3.7,   -0.0,   -2.7,   -5.5,   -5.5,   -5.5,   -3.5,    0.1,   -5.6,  999.0,   -5.5,    5.6,    0.0,    0.0,    0.0,  999.0,   -5.5,  999.0,    0.0,   -5.5,   -0.0,    5.4,    5.5,    5.7,    5.6,    2.8,   -5.4,    0.0,  999.0,    5.5,    5.5,    5.5,    5.5,  999.0,    5.6,    5.5,    5.5,    5.5
2000/10/02 13:40,   -0.0,  999.0,    5.5,    5.5,  999.0,   -5.7,    2.6,  999.0,   -0.0,  999.0,    5.5,   -5.6,    5.5,    2.8,   -5.5,    5.6,   -0.0,    5.6,    5.6,  999.0,    1.8,    5.5,  999.0,  999.0,  999.0,    5.6,    5.5,    5.6,    5.6,    5.5,    5.5,    5.5,    5.5,    5.6,  999.0,  999.0,    5.5,    5.6,    5.5,    5.5,    5.5,    5.4,    5.7,    5.5,  999.0,    5.5,    5.5,    5.5,    5.6,    5.6,    5.5,    5.5,    5.5,    5.5,    5.5,    5.7,    5.6,    5.5
2000/10/02 13:50,    2.7,  999.0,   -0.0,    0.1,    5.3,    2.9,  999.0,    0.0,    0.2,  999.0,    2.8,   -0.0,  999.0,  999.0,    5.7,    5.5,    5.6,    2.7,  999.0,  999.0,    0.1,  999.0,   -0.2,    5.4,  999.0,    5.6,    5.6,  999.0,   -0.0,  999.0,  999.0,    0.1,    5.6,  999.0,    5.7,  999.0,  999.0,    5.7,    5.4,  999.0,  999.0,  999.0,    5.7,  999.0,  999.0,    5.6,  999.0,  999.0,  999.0,    5.5,  999.0,  999.0,    5.4,  999.0,    5.5,  999.0,  999.0,  999.0
